DW1271 Weather Reports


time (UTC)temp
F
wind
direction
speed
knots
gust
knots
rain 1hr
in
rain 24hr
in
rain mn
in
humidity
%
barometer
mb
20260507023148 63 277 0.0 0.0 0.00 0.00 0.00 70 1037.5
20260507022645 63 4 0.0 0.0 0.00 0.00 0.00 69 1037.5
20260507022140 64 276 0.0 0.0 0.00 0.00 0.00 69 1037.1
20260507021637 64 291 0.0 0.0 0.00 0.00 0.00 68 1037.5
20260507021132 64 273 0.0 0.0 0.00 0.00 0.00 68 1037.1
20260507020631 64 273 0.0 0.0 0.00 0.00 0.00 68 1037.1
20260507020127 64 272 0.0 0.0 0.00 0.00 0.00 68 1037.1
20260507015626 64 275 0.0 0.0 0.00 0.00 0.00 66 1037.1
20260507015122 65 277 0.0 0.0 0.00 0.00 0.00 66 1037.1
20260507014619 65 277 0.0 0.0 0.00 0.00 0.00 64 1037.1
20260507014115 66 293 0.0 0.0 0.00 0.00 0.00 63 1037.1
20260507013612 66 277 0.0 0.0 0.00 0.00 0.00 63 1037.1
20260507013109 66 288 0.0 0.0 0.00 0.00 0.00 62 1037.1
20260507012606 66 303 0.0 0.0 0.00 0.00 0.00 61 1037.1
20260507012101 66 285 0.0 0.0 0.00 0.00 0.00 62 1037.1
20260507011600 66 276 0.0 0.0 0.00 0.00 0.00 62 1037.1
20260507011055 66 276 0.0 0.0 0.00 0.00 0.00 62 1036.8
20260507010550 67 275 0.0 0.0 0.00 0.00 0.00 62 1037.1
20260507010047 67 273 0.0 0.0 0.00 0.00 0.00 61 1036.8
20260507005544 67 274 0.0 0.0 0.00 0.00 0.00 61 1036.8
20260507005040 67 276 0.0 0.0 0.00 0.00 0.00 62 1036.8
20260507004538 68 274 0.0 0.0 0.00 0.00 0.00 62 1036.8
20260507004035 68 273 0.0 0.0 0.00 0.00 0.00 61 1036.8
20260507003531 68 274 0.0 0.0 0.00 0.00 0.00 60 1036.8
20260507003026 68 277 0.0 0.0 0.00 0.00 0.00 60 1036.8
20260507002523 68 276 0.0 0.0 0.00 0.00 0.00 59 1036.8
20260507002019 68 306 0.0 0.0 0.00 0.00 0.00 58 1036.8
20260507001515 68 274 0.0 0.0 0.00 0.00 0.00 60 1036.8
20260507001013 68 275 0.0 0.0 0.00 0.00 0.00 60 1036.8
20260507000509 69 276 0.0 0.0 0.00 0.00 0.00 59 1036.8
20260507000005 69 280 0.0 0.0 0.00 0.00 0.00 59 1036.8
20260506235502 69 280 0.0 0.0 0.00 0.00 0.00 58 1036.8
20260506234958 70 275 0.0 0.0 0.00 0.00 0.00 58 1036.4
20260506234455 70 274 0.0 0.0 0.00 0.00 0.00 58 1036.8
20260506233952 70 276 0.0 0.0 0.00 0.00 0.00 56 1036.8
20260506233448 69 287 0.0 0.0 0.00 0.00 0.00 57 1036.8
20260506232940 70 278 0.0 0.0 0.00 0.00 0.00 56 1037.1
20260506232436 70 274 0.0 0.0 0.00 0.00 0.00 56 1036.8
20260506231932 70 273 0.0 0.0 0.00 0.00 0.00 56 1037.1
20260506231430 71 277 0.0 0.0 0.00 0.00 0.00 57 1036.8
20260506230926 71 283 0.0 0.0 0.00 0.00 0.00 56 1036.8
20260506230423 71 274 0.0 0.0 0.00 0.00 0.00 56 1036.8
20260506225919 71 279 0.0 0.0 0.00 0.00 0.00 56 1036.8
20260506225416 71 275 0.0 0.0 0.00 0.00 0.00 56 1036.8
20260506224908 72 272 0.0 0.0 0.00 0.00 0.00 55 1037.1
20260506224405 72 276 0.0 0.0 0.00 0.00 0.00 56 1037.1
20260506223901 72 276 0.0 0.0 0.00 0.00 0.00 55 1037.1
20260506223357 72 300 0.0 0.0 0.00 0.00 0.00 56 1037.1
20260506222854 73 276 0.0 0.0 0.00 0.00 0.00 54 1037.5
20260506222350 73 276 0.0 0.0 0.00 0.00 0.00 55 1037.5
20260506221848 73 276 0.0 0.0 0.00 0.00 0.00 54 1037.5
20260506221345 73 317 0.0 0.0 0.00 0.00 0.00 53 1037.5
20260506220842 73 276 0.0 0.0 0.00 0.00 0.00 55 1037.5
20260506220338 73 286 0.0 0.0 0.00 0.00 0.00 53 1037.5
20260506215835 74 281 0.0 0.0 0.00 0.00 0.00 53 1037.5
20260506215330 74 277 0.0 0.0 0.00 0.00 0.00 53 1037.8
20260506214821 75 280 0.0 0.0 0.00 0.00 0.00 53 1037.5
20260506214317 75 282 0.0 0.0 0.00 0.00 0.00 54 1037.5
20260506213816 74 281 0.0 0.0 0.00 0.00 0.00 55 1037.8
20260506213313 74 279 0.0 0.0 0.00 0.00 0.00 53 1037.8
20260506212810 75 281 0.0 0.0 0.00 0.00 0.00 53 1037.8
20260506212307 75 281 0.0 0.0 0.00 0.00 0.00 52 1037.5
20260506211801 75 281 0.0 0.0 0.00 0.00 0.00 52 1037.8
20260506211257 75 278 0.0 0.0 0.00 0.00 0.00 52 1038.1
20260506210755 75 279 0.0 0.0 0.00 0.00 0.00 52 1038.1
20260506210251 76 278 0.0 0.0 0.00 0.00 0.00 49 1038.1
20260506205748 75 278 0.0 0.0 0.00 0.00 0.00 52 1038.1
20260506205244 76 285 0.0 0.0 0.00 0.00 0.00 51 1038.1
20260506204741 76 285 0.0 0.0 0.00 0.00 0.00 50 1038.1
20260506204239 77 285 0.0 0.0 0.00 0.00 0.00 50 1038.1
20260506203736 76 285 0.0 0.0 0.00 0.00 0.00 52 1038.1
20260506203233 77 283 0.0 0.0 0.00 0.00 0.00 51 1038.1
20260506202731 76 289 0.0 0.0 0.00 0.00 0.00 51 1038.1
20260506202227 76 283 0.0 0.0 0.00 0.00 0.00 51 1038.5
20260506201724 76 286 0.0 0.0 0.00 0.00 0.00 52 1038.5
20260506201220 74 283 0.0 0.0 0.00 0.00 0.00 54 1038.5
20260506200717 75 283 0.0 0.0 0.00 0.00 0.00 52 1038.5
20260506200208 75 280 0.0 0.0 0.00 0.00 0.00 55 1038.5
20260506195704 75 308 0.0 0.0 0.00 0.00 0.00 52 1038.5
20260506195200 76 286 0.0 0.0 0.00 0.00 0.00 52 1038.8
20260506194653 75 279 0.0 0.9 0.00 0.00 0.00 52 1038.8
20260506194149 76 277 0.0 0.0 0.00 0.00 0.00 52 1038.8
20260506193647 75 278 0.0 0.0 0.00 0.00 0.00 51 1038.8
20260506193144 75 283 0.0 0.0 0.00 0.00 0.00 51 1039.2
20260506192640 74 280 0.0 0.0 0.00 0.00 0.00 48 1039.2
20260506192136 75 279 0.0 0.0 0.00 0.00 0.00 49 1038.8
20260506191634 76 277 0.0 0.0 0.00 0.00 0.00 47 1039.2
20260506191130 77 276 0.0 0.0 0.00 0.00 0.00 45 1039.2
20260506190627 76 276 0.0 0.0 0.00 0.00 0.00 48 1039.2
20260506190124 74 278 0.0 0.0 0.00 0.00 0.00 49 1039.2
20260506185621 74 273 0.0 0.0 0.00 0.00 0.00 50 1039.5
20260506185117 75 282 0.0 0.0 0.00 0.00 0.00 49 1039.5
20260506184614 74 280 0.0 0.0 0.00 0.00 0.00 50 1039.2
20260506184112 74 278 0.0 0.0 0.00 0.00 0.00 51 1039.2
20260506183608 72 278 0.0 0.0 0.00 0.00 0.00 53 1039.5
20260506183104 72 284 0.0 0.0 0.00 0.00 0.00 52 1039.2
20260506182602 71 278 0.0 0.0 0.00 0.00 0.00 55 1039.5
20260506182059 71 280 0.0 0.0 0.00 0.00 0.00 55 1039.5
20260506181557 72 275 0.0 0.0 0.00 0.00 0.00 53 1039.5
20260506181053 72 286 0.0 0.0 0.00 0.00 0.00 53 1039.5
20260506180550 72 274 0.0 0.0 0.00 0.00 0.00 55 1039.8
20260506180047 72 269 0.0 0.0 0.00 0.00 0.00 53 1039.5
20260506175543 72 275 0.0 0.0 0.00 0.00 0.00 53 1039.8
20260506175039 70 277 0.0 0.0 0.00 0.00 0.00 57 1039.8
20260506174538 71 283 0.0 0.0 0.00 0.00 0.00 55 1039.5
20260506174034 70 274 0.0 0.0 0.00 0.00 0.00 58 1039.8
20260506173532 70 275 0.0 0.0 0.00 0.00 0.00 56 1039.8
20260506173028 72 278 0.0 0.0 0.00 0.00 0.00 56 1039.5
20260506172526 71 277 0.0 0.0 0.00 0.00 0.00 56 1039.5
20260506172022 70 277 0.0 0.0 0.00 0.00 0.00 58 1039.8
20260506171519 69 274 0.0 0.0 0.00 0.00 0.00 61 1039.5
20260506171011 67 274 0.0 0.0 0.00 0.00 0.00 63 1039.5
20260506170508 68 291 0.0 0.0 0.00 0.00 0.00 62 1039.5
20260506170005 68 274 0.0 0.0 0.00 0.00 0.00 63 1039.5
20260506165504 68 277 0.0 0.0 0.00 0.00 0.00 63 1039.5
20260506164954 68 276 0.0 0.0 0.00 0.00 0.00 62 1039.5
20260506164451 68 277 0.0 0.0 0.00 0.00 0.00 63 1039.5
20260506163949 66 276 0.0 0.0 0.00 0.00 0.00 67 1039.8
20260506163444 64 277 0.0 0.0 0.00 0.00 0.00 69 1039.8
20260506162938 62 276 0.0 0.0 0.00 0.00 0.00 74 1039.5
20260506162436 61 276 0.0 0.0 0.00 0.00 0.00 76 1039.5
20260506161934 61 272 0.0 0.0 0.00 0.00 0.00 75 1039.5
20260506161432 61 276 0.0 0.0 0.00 0.00 0.00 75 1039.8
20260506160929 61 266 0.0 0.0 0.00 0.00 0.00 75 1039.8
20260506160426 61 277 0.0 0.0 0.00 0.00 0.00 75 1039.5
20260506155923 61 278 0.0 0.0 0.00 0.00 0.00 75 1039.5
20260506155420 61 269 0.0 0.0 0.00 0.00 0.00 75 1039.5
20260506153542 60 277 0.0 0.0 0.00 0.00 0.00 78 1039.8
20260506153040 59 276 0.0 0.0 0.00 0.00 0.00 80 1039.2
20260506152537 59 283 0.0 0.0 0.00 0.00 0.00 80 1039.8
20260506152035 58 277 0.0 0.0 0.00 0.00 0.00 80 1039.8
20260506151532 57 271 0.0 0.0 0.00 0.00 0.00 79 1039.8
20260506151030 57 233 0.0 0.0 0.00 0.00 0.00 79 1039.8
20260506150526 57 276 0.0 0.0 0.00 0.00 0.00 81 1039.8
20260506150023 56 268 0.0 0.0 0.00 0.00 0.00 80 1039.5
20260506145519 56 289 0.0 0.0 0.00 0.00 0.00 80 1039.8
20260506145017 55 276 0.0 0.0 0.00 0.00 0.00 79 1039.5
20260506144513 55 273 0.0 0.0 0.00 0.00 0.00 79 1039.8
20260506144011 54 298 0.0 0.0 0.00 0.00 0.00 80 1039.8
20260506143509 54 298 0.0 0.0 0.00 0.00 0.00 80 1039.8
20260506143007 54 273 0.0 0.0 0.00 0.00 0.00 81 1039.5
20260506142504 54 300 0.0 0.0 0.00 0.00 0.00 81 1039.8
20260506142002 54 1 0.0 0.0 0.00 0.00 0.00 81 1039.5
20260506141500 53 274 0.0 0.0 0.00 0.00 0.00 82 1039.8
20260506140958 53 312 0.0 0.0 0.00 0.00 0.00 82 1039.2
20260506140455 53 292 0.0 0.0 0.00 0.00 0.00 81 1039.5
20260506135952 53 285 0.0 0.0 0.00 0.00 0.00 81 1039.2
20260506135449 52 287 0.0 0.0 0.00 0.00 0.00 82 1039.5
20260506134944 52 290 0.0 0.0 0.00 0.00 0.00 82 1039.2
20260506134441 52 273 0.0 0.0 0.00 0.00 0.00 83 1039.2
20260506133938 52 275 0.0 0.0 0.00 0.00 0.00 83 1039.2
20260506133435 52 279 0.0 0.0 0.00 0.00 0.00 83 1039.2
20260506132931 52 275 0.0 0.0 0.00 0.00 0.00 83 1039.2
20260506132429 52 305 0.0 0.0 0.00 0.00 0.00 83 1039.2
20260506131926 52 282 0.0 0.0 0.00 0.00 0.00 83 1039.2
20260506131423 51 327 0.0 0.0 0.00 0.00 0.00 84 1039.2
20260506130920 51 293 0.0 0.0 0.00 0.00 0.00 85 1039.2
20260506130416 51 282 0.0 0.0 0.00 0.00 0.00 86 1039.2
20260506125914 50 277 0.0 0.0 0.00 0.00 0.00 86 1039.2
20260506125412 51 277 0.0 0.0 0.00 0.00 0.00 85 1038.8
20260506124910 51 277 0.0 0.0 0.00 0.00 0.00 84 1038.8
20260506124407 51 277 0.0 0.0 0.00 0.00 0.00 84 1038.8
20260506123905 51 277 0.0 0.0 0.00 0.00 0.00 84 1039.2
20260506123403 52 278 0.0 0.0 0.00 0.00 0.00 83 1038.8
20260506122900 52 277 0.0 0.0 0.00 0.00 0.00 83 1038.8
20260506122356 52 290 0.0 0.0 0.00 0.00 0.00 83 1038.8
20260506121855 52 280 0.0 0.0 0.00 0.00 0.00 83 1038.5
20260506121352 52 312 0.0 0.0 0.00 0.00 0.00 83 1038.5
20260506120848 52 341 0.0 0.0 0.00 0.00 0.00 82 1038.5
20260506120346 52 303 0.0 0.0 0.00 0.00 0.00 83 1038.5
20260506115843 52 304 0.0 0.0 0.00 0.00 0.00 83 1038.5
20260506115342 52 288 0.0 0.0 0.00 0.00 0.00 82 1038.1
20260506114839 52 291 0.0 0.0 0.00 0.00 0.00 82 1038.5
20260506114337 52 286 0.0 0.0 0.00 0.00 0.00 82 1038.5
20260506113835 52 277 0.0 0.0 0.00 0.00 0.00 83 1038.1
20260506113332 52 277 0.0 0.0 0.00 0.00 0.00 83 1038.5
20260506112829 52 277 0.0 0.0 0.00 0.00 0.00 83 1038.5
20260506112326 52 285 0.0 0.0 0.00 0.00 0.00 83 1038.5
20260506111823 52 283 0.0 0.0 0.00 0.00 0.00 82 1038.5
20260506111322 52 277 0.0 0.0 0.00 0.00 0.00 82 1038.1
20260506110819 53 277 0.0 0.0 0.00 0.00 0.00 82 1038.5
20260506110316 53 282 0.0 0.0 0.00 0.00 0.00 81 1038.5
20260506105812 53 282 0.0 0.0 0.00 0.00 0.00 81 1038.1
20260506105309 53 283 0.0 0.0 0.00 0.00 0.00 81 1038.5
20260506104807 53 296 0.0 0.0 0.00 0.00 0.00 81 1038.5
20260506104304 53 281 0.0 0.0 0.00 0.00 0.00 81 1038.1
20260506103802 53 291 0.0 0.0 0.00 0.00 0.00 81 1038.5
20260506103259 53 259 0.0 0.0 0.00 0.00 0.00 81 1038.1
20260506102756 53 258 0.0 0.0 0.00 0.00 0.00 82 1038.1
20260506102254 53 276 0.0 0.0 0.00 0.00 0.00 82 1038.1
20260506101751 53 276 0.0 0.0 0.00 0.00 0.00 82 1038.5
20260506101247 53 276 0.0 0.0 0.00 0.00 0.00 81 1038.5
20260506100745 53 274 0.0 0.0 0.00 0.00 0.00 80 1038.5
20260506100243 54 272 0.0 0.0 0.00 0.00 0.00 79 1038.5
20260506095742 54 273 0.0 0.0 0.00 0.00 0.00 79 1038.5
20260506095238 54 275 0.0 0.0 0.00 0.00 0.00 79 1038.5
20260506094735 54 272 0.0 0.0 0.00 0.00 0.00 79 1038.5
20260506094233 54 273 0.0 0.0 0.00 0.00 0.00 79 1038.8
20260506093732 54 275 0.0 0.0 0.00 0.00 0.00 80 1038.5
20260506093228 54 273 0.0 0.0 0.00 0.00 0.00 80 1038.5
20260506092726 54 273 0.0 0.0 0.00 0.00 0.00 79 1038.5
20260506092224 54 275 0.0 0.0 0.00 0.00 0.00 79 1038.1
20260506091721 54 275 0.0 0.0 0.00 0.00 0.00 79 1038.5
20260506091218 54 275 0.0 0.0 0.00 0.00 0.00 79 1038.5
20260506090716 54 276 0.0 0.0 0.00 0.00 0.00 79 1038.8
20260506090212 55 279 0.0 0.0 0.00 0.00 0.00 78 1038.8
20260506085710 55 278 0.0 0.0 0.00 0.00 0.00 78 1038.5
20260506085205 54 272 0.0 0.0 0.00 0.00 0.00 79 1038.5
20260506084702 55 285 0.0 0.0 0.00 0.00 0.00 79 1039.2
20260506084159 54 272 0.0 0.0 0.00 0.00 0.00 80 1039.2
20260506083655 54 278 0.0 0.0 0.00 0.00 0.00 81 1038.8
20260506083154 54 276 0.0 0.0 0.00 0.00 0.00 81 1038.8
20260506082650 54 275 0.0 0.0 0.00 0.00 0.00 81 1038.8
20260506082145 54 272 0.0 0.0 0.00 0.00 0.00 81 1038.8
20260506081643 54 276 0.0 0.0 0.00 0.00 0.00 81 1038.8
20260506081141 54 275 0.0 0.0 0.00 0.00 0.00 81 1038.8
20260506080638 55 274 0.0 0.0 0.00 0.00 0.00 80 1038.8
20260506080135 55 279 0.0 0.0 0.00 0.00 0.00 80 1039.2
20260506073119 55 273 0.0 0.0 0.00 0.00 0.00 82 1039.2
20260506072615 55 273 0.0 0.0 0.00 0.00 0.00 82 1039.2
20260506072114 55 273 0.0 0.0 0.00 0.00 0.00 82 1038.8
20260506071611 55 274 0.0 0.0 0.00 0.00 0.00 82 1038.8
20260506071108 55 273 0.0 0.0 0.00 0.00 0.00 81 1038.8
20260506070605 55 276 0.0 0.0 0.00 0.00 0.00 82 1038.8
20260506062039 55 273 0.0 0.0 0.00 0.00 0.00 81 1038.1
20260506061535 55 273 0.0 0.0 0.00 0.00 0.00 82 1038.1
20260506061033 55 274 0.0 0.0 0.00 0.00 0.00 82 1038.1
20260506060531 56 273 0.0 0.0 0.00 0.00 0.00 82 1038.5
20260506051000 56 274 0.0 0.0 0.00 0.00 0.00 81 1037.8
20260506050458 56 273 0.0 0.0 0.00 0.00 0.00 81 1038.1
20260506044948 56 273 0.0 0.0 0.00 0.00 0.00 80 1037.8
20260506044446 57 273 0.0 0.0 0.00 0.00 0.00 80 1037.5
20260506043943 56 273 0.0 0.0 0.00 0.00 0.00 79 1037.5
20260506043440 57 273 0.0 0.0 0.00 0.00 0.00 78 1037.5
20260506042938 57 277 0.0 0.0 0.00 0.00 0.00 78 1037.5
20260506042437 57 277 0.0 0.0 0.00 0.00 0.00 77 1037.1
20260506041934 57 277 0.0 0.0 0.00 0.00 0.00 77 1037.5
20260506041432 57 277 0.0 0.0 0.00 0.00 0.00 76 1037.1
20260506040929 57 277 0.0 0.0 0.00 0.00 0.00 75 1037.1
20260506040427 57 279 0.0 0.0 0.00 0.00 0.00 75 1037.1
20260506035922 57 280 0.0 0.0 0.00 0.00 0.00 75 1037.1
20260506035420 58 282 0.0 0.0 0.00 0.00 0.00 74 1037.1
20260506034917 58 277 0.0 0.0 0.00 0.00 0.00 74 1037.1
20260506034414 58 277 0.0 0.0 0.00 0.00 0.00 73 1036.8
20260506033911 58 277 0.0 0.0 0.00 0.00 0.00 73 1036.8
20260506033408 58 278 0.0 0.0 0.00 0.00 0.00 72 1036.8
20260506032905 59 279 0.0 0.0 0.00 0.00 0.00 72 1036.8
20260506032402 59 280 0.0 0.0 0.00 0.00 0.00 71 1036.4
20260506031859 59 282 0.0 0.0 0.00 0.00 0.00 71 1036.8
20260506031356 59 271 0.0 0.0 0.00 0.00 0.00 70 1036.4
20260506030854 59 280 0.0 0.0 0.00 0.00 0.00 70 1036.4
20260506030352 60 280 0.0 0.0 0.00 0.00 0.00 69 1036.4
20260506025848 60 278 0.0 0.0 0.00 0.00 0.00 70 1036.1
20260506025344 60 276 0.0 0.0 0.00 0.00 0.00 69 1036.1
20260506024842 60 276 0.0 0.0 0.00 0.00 0.00 69 1036.1
20260506024338 60 277 0.0 0.0 0.00 0.00 0.00 69 1035.8
20260506023835 60 277 0.0 0.0 0.00 0.00 0.00 69 1035.8